Weather Roundup
Issued by NWS Springfield, MO

Home | Current Version | Previous Version | Text Only | Print | Product List | Glossary On
Versions: 1 2 3 4 5 6 7 8 9 10 11 12 13 14 15 16 17 18 19 20 21 22 23 24 25 26 27 28 29 30 31 32 33 34 35 36 37 38 39 40 41 42 43 44 45 46 47 48 49 50
000
NZUS99 KSGF 180707
HRRSGF

HOURLY WEATHER
NATIONAL WEATHER SERVICE SPRINGFIELD MO
200 AM CDT FRI AUG 18 2017

......SGF CWA......

CITY           SKY/WX    TMP DP  RH WIND       PRES   REMARKS
SPRINGFIELD    CLEAR     62  61  96 CALM      29.99F
JOPLIN         CLEAR     64  64 100 S5        30.00S
WEST PLAINS    CLEAR     64  62  93 W5        30.01S
ROLLA          CLEAR     64  63  96 SW8       29.97F
OSAGE BEACH    CLEAR     63  62  97 CALM      29.97F
BRANSON        PTCLDY    68  66  94 CALM      30.03R

......SURROUNDING SGF CWA......

CITY           SKY/WX    TMP DP  RH WIND       PRES   REMARKS
CHANUTE        PTCLDY    67  62  84 S6        29.99S
PARSONS        CLEAR     64  62  93 CALM      30.00F
COFFEYVILLE    PTCLDY    66  65  96 CALM      29.99S
EMPORIA        PTCLDY    67  60  78 S8        29.98F
GROVE OK       CLEAR     68  68 100 CALM      30.01S
ROGERS AR      CLEAR     70  68  93 CALM      30.04S
SILOAM SPRINGS CLEAR     70  66  88 CALM      30.02S
HARRISON AR    CLEAR     68  67  96 CALM      30.03S
NEAR YELLVILLE CLEAR     70  63  78 CALM      29.98S

......KANSAS AND MISSOURI......

CITY           SKY/WX    TMP DP  RH WIND       PRES   REMARKS
KANSAS CTY INT CLOUDY    65  62  90 SW8       29.96S
DOWNTOWN KC    CLOUDY    71  65  81 CALM      29.95S
COLUMBIA       CLOUDY    66  62  87 W7        29.94F
SEDALIA        CLOUDY    66  65  96 SW6       29.97S
ST JOSEPH      CLOUDY    59  59 100 CALM      29.95S FOG
ST LOUIS       PTCLDY    71  64  78 W8        29.91S
SPIRIT OF STL  PTCLDY    67  65  93 W7        29.90S
KIRKSVILLE     CLEAR     63  60  90 W7        29.93S
WICHITA        CLOUDY    68  63  84 SW8       30.00S
TOPEKA         PTCLDY    64  62  93 CALM      29.96S
OLATHE         CLEAR     66  62  87 SW3       29.97S

......TENNESSEE......

CITY           SKY/WX    TMP DP  RH WIND       PRES   REMARKS
MEMPHIS        PTCLDY    75  73  93 W5        29.96F
NASHVILLE      CLOUDY    76  73  91 SW7       29.94F

......ARKANSAS.......

CITY           SKY/WX    TMP DP  RH WIND       PRES   REMARKS
FAYETTEVILLE   CLEAR     67  67 100 CALM      30.03S
FT SMITH       PTCLDY    76  74  93 CALM      29.99S
LITTLE ROCK    PTCLDY    73  73 100 W5        29.98F

......OKLAHOMA.......

CITY           SKY/WX    TMP DP  RH WIND       PRES   REMARKS
TULSA          PTCLDY    72  71  97 W3        29.98S
PONCA CITY     CLOUDY    68  64  87 CALM      30.00F
MCALESTER      PTCLDY    75  73  93 CALM      30.02S
OKLAHOMA CITY  MOCLDY    72  70  93 S5        30.01F

......IOWA............

CITY           SKY/WX    TMP DP  RH WIND       PRES   REMARKS
DES MOINES     CLEAR     65  61  87 CALM      29.91S
QUAD CITIES    CLEAR     68  62  81 W8        29.84S

......ILLINOIS........

CITY           SKY/WX    TMP DP  RH WIND       PRES   REMARKS
QUINCY         CLEAR     65  61  87 W6        29.90S
CHICAGO        PTCLDY    70  62  76 W13       29.76F




USA.gov is the U.S. government's official web portal to all federal, state and local government web resources and services.